Location: Sternwarte Stuttgart
(48.7670°N, 9.1830°E)
Time: 02:31:59
(UTC+01:00)

Cosmos 2221 - Pass Details

Date: 24 January 2019
Orbit: 592 x 617 km, 82.5° (Epoch: 16 February)

Event Time Altitude Azimuth Distance (km) Brightness Sun altitude
Rises 07:04:52 0° 168° (SSE) 2,877 6.4 -9.7°
Reaches altitude 10° 07:07:11 10° 161° (SSE) 1,977 5.7 -9.3°
Maximum altitude 07:11:16 39° 92° (E) 926 4.2 -8.7°
Drops below altitude 10° 07:15:22 10° 24° (NNE) 1,988 5.2 -8.0°
Sets 07:17:41 0° 17° (NNE) 2,896 6.0 -7.7°
